Date String (YYYY-MM-DD hh:mm:ss) UTC,Instrument flags,Ambient pressure (hPa),Sample flow (lpm),Bypass flow (lpm),Sample temperature (°C),Ambient temperature (°C),ASC tube jacket temperature (°C),LED temperature (°C),Box temperature (°C),Sample RH (%),Span deviation,Mass concentration (μg/m³),Mass concentration (μg/m³),Mass concentration (μg/m³)
DateTimeUTC,F1_M11,P_M11,Q1_M11,Q2_M11,T1_M11,T2_M11,T3_M11,T4_M11,T5_M11,U1_M11,ZSPAN_M11,X0_M11,X2_M11,X1_M11
2022-10-14 00:00:00,,0827.6,4.99,0.00,29.8,27.5,00.0,38.6,31.5,14.1,0001.7,0019.82,0008.51,0007.22
2022-10-14 00:01:00,,0827.6,5.02,0.00,29.8,27.7,00.0,38.6,31.5,14.1,0002.7,0019.53,0008.54,0007.24
2022-10-14 00:02:00,,0827.7,4.99,0.00,29.8,27.9,00.0,38.6,31.6,14.1,0003.5,0019.78,0008.53,0007.25
2022-10-14 00:03:00,,0827.5,5.00,0.00,29.8,28.0,00.0,38.6,31.6,14.0,0002.8,0018.54,0008.47,0007.27
2022-10-14 00:04:00,,0827.6,5.00,0.00,29.8,28.1,00.0,38.6,31.6,14.0,0003.5,0018.04,0008.41,0007.27
2022-10-14 00:05:00,,0827.6,5.00,0.00,29.8,28.2,00.0,38.6,31.6,14.1,0003.5,0017.71,0008.34,0007.26
2022-10-14 00:06:00,,0827.6,5.00,0.00,29.8,28.2,00.0,38.6,31.6,14.1,0003.5,0018.86,0008.33,0007.26
2022-10-14 00:07:00,,0827.6,5.00,0.00,29.8,28.3,00.0,38.6,31.6,14.1,0003.1,0020.07,0008.36,0007.26
2022-10-14 00:08:00,,0827.6,4.99,0.00,29.8,28.4,00.0,38.6,31.7,14.1,0002.0,0020.22,0008.39,0007.27
2022-10-14 00:09:00,,0827.6,5.00,0.00,29.8,28.4,00.0,38.6,31.7,14.1,0001.0,0020.73,0008.40,0007.27
2022-10-14 00:10:00,,0827.6,5.00,0.00,29.8,28.4,00.0,38.6,31.7,14.0,0000.5,0021.46,0008.48,0007.28
2022-10-14 00:11:00,,0827.6,5.00,0.00,29.8,28.4,00.0,38.6,31.7,14.0,0000.6,0022.89,0008.51,0007.31
2022-10-14 00:12:00,,0827.7,5.00,0.00,29.8,28.4,00.0,38.6,31.7,14.1,0000.4,0023.62,0008.53,0007.32
2022-10-14 00:13:00,,0827.7,5.00,0.00,29.8,28.4,00.0,38.6,31.7,14.1,0000.6,0023.51,0008.53,0007.34
2022-10-14 00:14:00,,0827.7,4.99,0.00,29.9,28.4,00.0,38.7,31.7,14.0,0001.1,0024.41,0008.58,0007.35
2022-10-14 00:15:00,,0827.7,5.00,0.00,29.9,28.4,00.0,38.7,31.7,13.9,0001.4,0025.99,0008.64,0007.36
2022-10-14 00:16:00,,0827.7,5.00,0.00,29.9,28.4,00.0,38.7,31.8,13.9,0001.3,0026.02,0008.70,0007.39
2022-10-14 00:17:00,,0827.6,5.00,0.00,29.9,28.4,00.0,38.7,31.7,13.9,0000.8,0025.73,0008.74,0007.41
2022-10-14 00:18:00,,0827.6,5.00,0.00,29.9,28.4,00.0,38.7,31.8,13.9,0000.5,0024.92,0008.74,0007.43
2022-10-14 00:19:00,,0827.6,5.00,0.00,29.9,28.4,00.0,38.7,31.8,13.9,0000.2,0024.49,0008.82,0007.45
2022-10-14 00:20:00,,0827.6,5.00,0.00,29.9,28.4,00.0,38.7,31.7,14.0,0000.6,0024.55,0008.84,0007.47
2022-10-14 00:21:00,,0827.7,5.00,0.00,29.9,28.5,00.0,38.7,31.8,13.9,0001.2,0024.25,0008.84,0007.47
2022-10-14 00:22:00,,0827.7,5.00,0.00,29.9,28.5,00.0,38.7,31.8,13.8,0000.8,0023.12,0008.84,0007.48
2022-10-14 00:23:00,,0827.7,5.00,0.00,29.9,28.5,00.0,38.7,31.8,13.8,0000.7,0022.87,0008.85,0007.50
2022-10-14 00:24:00,,0827.6,5.00,0.00,29.9,28.5,00.0,38.7,31.8,13.9,0000.1,0023.13,0008.82,0007.51
2022-10-14 00:25:00,,0827.7,5.00,0.00,29.9,28.5,00.0,38.7,31.8,13.8,-000.1,0023.03,0008.81,0007.53
2022-10-14 00:26:00,,0827.7,5.00,0.00,30.0,28.6,00.0,38.7,31.8,13.9,0000.3,0021.84,0008.81,0007.53
2022-10-14 00:27:00,,0827.7,5.00,0.00,30.0,28.6,00.0,38.8,31.9,13.9,0000.5,0022.67,0008.81,0007.53
2022-10-14 00:28:00,,0827.7,5.00,0.00,30.0,28.7,00.0,38.8,31.9,13.9,0000.8,0023.02,0008.85,0007.53
2022-10-14 00:29:00,,0827.7,5.00,0.00,30.0,28.7,00.0,38.8,31.9,13.9,0001.4,0023.25,0008.90,0007.53
2022-10-14 00:30:00,,0827.7,5.00,0.00,30.0,28.7,00.0,38.8,31.9,14.0,0002.1,0023.17,0008.85,0007.53
2022-10-14 00:31:00,,0827.7,5.00,0.00,30.0,28.7,00.0,38.8,31.9,14.0,0002.6,0023.62,0008.87,0007.54
2022-10-14 00:32:00,,0827.7,5.00,0.00,30.1,28.7,00.0,38.8,32.0,14.0,0002.6,0024.15,0008.88,0007.56
2022-10-14 00:33:00,,0827.7,5.00,0.00,30.1,28.8,00.0,38.8,32.0,14.0,0002.9,0024.52,0008.89,0007.56
2022-10-14 00:34:00,,0827.7,5.00,0.00,30.1,28.8,00.0,38.8,32.0,14.0,0002.9,0024.34,0008.86,0007.55
2022-10-14 00:35:00,,0827.7,5.00,0.00,30.1,28.8,00.0,38.9,32.0,13.9,0004.0,0023.60,0008.88,0007.55
2022-10-14 00:36:00,,0827.7,4.99,0.00,30.1,28.8,00.0,38.9,32.0,13.9,0004.1,0024.00,0008.83,0007.54
2022-10-14 00:37:00,,0827.7,5.00,0.00,30.1,28.8,00.0,38.9,32.0,13.9,0004.2,0024.23,0008.82,0007.51
2022-10-14 00:38:00,,0827.7,5.01,0.00,30.1,27.7,00.0,38.9,32.0,13.9,0004.2,0024.51,0008.78,0007.49
2022-10-14 00:39:00,,0827.7,5.00,0.00,30.1,26.4,00.0,38.8,31.8,14.0,0004.3,0024.86,0008.76,0007.48
2022-10-14 00:40:00,,0827.7,5.00,0.00,30.0,26.3,00.0,38.7,31.7,14.1,0004.5,0024.69,0008.74,0007.44
2022-10-14 00:41:00,,0827.7,5.00,0.00,29.9,26.5,00.0,38.7,31.6,14.2,0004.5,0024.07,0008.67,0007.40
2022-10-14 00:42:00,,0827.7,4.99,0.00,29.9,26.9,00.0,38.7,31.5,14.3,0004.5,0022.82,0008.60,0007.36
2022-10-14 00:43:00,,0827.7,5.02,0.00,29.8,27.2,00.0,38.7,31.5,14.4,0004.3,0022.09,0008.54,0007.30
2022-10-14 00:44:00,,0827.7,4.99,0.00,29.8,27.4,00.0,38.7,31.5,14.3,0004.2,0021.20,0008.43,0007.23
2022-10-14 00:45:00,,0827.7,5.01,0.00,29.8,27.6,00.0,38.6,31.5,14.3,0004.3,0020.78,0008.37,0007.20
2022-10-14 00:46:00,,0827.7,4.99,0.00,29.7,27.6,00.0,38.6,31.4,14.3,0003.2,0021.37,0008.38,0007.17
2022-10-14 00:47:00,,0827.7,4.99,0.00,29.7,27.7,00.0,38.6,31.4,14.2,0003.7,0020.08,0008.34,0007.12
2022-10-14 00:48:00,,0827.7,4.99,0.00,29.7,27.7,00.0,38.6,31.4,14.2,0003.2,0019.04,0008.23,0007.09
2022-10-14 00:49:00,,0827.7,5.01,0.00,29.6,27.8,00.0,38.6,31.4,14.0,0002.5,0017.33,0008.20,0007.05
2022-10-14 00:50:00,,0827.7,5.00,0.00,29.6,27.8,00.0,38.5,31.4,14.0,0001.8,0015.73,0008.12,0007.02
2022-10-14 00:51:00,,0827.8,5.00,0.00,29.6,27.9,00.0,38.5,31.4,14.0,0000.7,0014.91,0008.07,0007.00
2022-10-14 00:52:00,,0827.8,4.99,0.00,29.6,27.9,00.0,38.5,31.4,14.0,0001.1,0015.72,0008.06,0006.98
2022-10-14 00:53:00,,0827.8,5.00,0.00,29.6,28.0,00.0,38.5,31.4,13.9,0000.6,0015.99,0008.03,0006.94
2022-10-14 00:54:00,,0827.9,5.01,0.00,29.6,28.1,00.0,38.5,31.5,13.9,0001.2,0016.00,0007.99,0006.91
2022-10-14 00:55:00,,0827.9,5.00,0.00,29.6,28.2,00.0,38.5,31.5,13.9,0001.4,0016.66,0007.99,0006.90
2022-10-14 00:56:00,,0827.9,4.98,0.00,29.6,28.2,00.0,38.5,31.5,13.9,0001.3,0016.93,0007.98,0006.87
2022-10-14 00:57:00,,0827.9,5.00,0.00,29.7,28.2,00.0,38.5,31.5,13.8,0001.4,0015.81,0007.87,0006.83
2022-10-14 00:58:00,,0827.9,5.00,0.00,29.7,28.3,00.0,38.5,31.6,13.8,0001.4,0015.91,0007.87,0006.81
2022-10-14 00:59:00,,0827.9,5.00,0.00,29.7,28.3,00.0,38.5,31.6,13.8,0001.0,0017.12,0007.96,0006.80
